Dewpoint
74 75 74 73 74 74 74 73 72 72 75 73 73 74 74 75 76 74 74 76 77 77 78 79 79 79 78 79 79 79 80 79 79 78 78 76 75 71 69 71 74 76
74 74 75 73 75 75 76 73 74 74 76 77 75 75 76 76 74 74 74 75 76 76 78 77 78 79 79 78 79 78 79 79 78 75 76 76 77 74 71 73 70 75
73 73 72 72 69 70 67 70 74 73 72 71 73 75 72 73 73 77 76 75 74 73 77 77 78 78 77 78 79 78 77 79 77 74 78 78 76 76 78 70 70 70
74 73 71 70 69 69 69 70 72 73 71 73 71 68 68 67 72 73 76 75 76 76 74 75 76 75 77 77 79 79 77 79 78 78 78 78 78 76 75 75 73 71
72 72 71 70 69 71 70 69 67 69 69 71 69 72 72 75 73 72 74 74 77 74 76 75 75 75 77 77 78 78 77 77 78 79 79 79 79 78 74 75 78 73
73 73 73 71 71 72 69 67 68 68 68 66 69 68 68 72 71 71 71 71 70 70 70 71 72 72 73 76 77 77 76 74 75 78 77 78 76 75 71 75 76 75
71 72 70 70 69 69 69 69 68 69 67 66 69 68 68 67 70 71 72 71 70 71 69 72 75 74 74 76 77 77 77 77 77 77 77 76 77 76 72 76 78 76
71 70 70 70 67 67 68 68 68 68 69 69 66 69 68 65 68 66 70 70 69 70 72 71 74 76 71 73 75 76 75 71 73 78 77 76 77 76 76 74 77 77
71 71 71 69 66 65 64 64 66 67 68 68 64 64 67 68 67 66 71 71 70 71 72 72 74 72 72 73 74 75 74 72 71 73 75 74 74 76 74 75 75 76
72 72 70 68 66 64 64 64 63 65 67 66 64 63 64 67 69 67 71 73 71 72 73 71 74 71 71 71 74 74 74 75 75 75 72 73 73 73 72 73 73 74
67 68 69 69 66 64 63 62 62 63 66 65 64 62 63 64 68 70 71 72 68 70 73 71 71 72 72 69 70 71 73 72 72 74 74 73 72 73 74 74 73 72
71 68 65 67 67 65 63 62 61 61 63 65 65 64 63 63 66 66 69 71 70 69 70 72 72 72 73 72 69 69 70 71 72 73 71 72 72 72 72 72 71 72
73 71 67 64 66 65 63 62 61 60 59 62 65 64 62 60 62 65 67 70 70 69 68 71 72 71 74 74 73 70 69 70 69 71 71 70 70 69 68 69 69 69
75 74 72 71 71 69 67 62 61 61 61 62 64 64 61 60 59 62 65 66 69 69 69 71 72 71 73 74 73 72 69 70 69 68 68 69 67 68 67 65 66 66
74 74 75 74 72 72 70 67 66 65 65 64 66 63 60 60 60 58 64 64 66 69 69 69 69 70 70 72 73 72 71 68 69 68 68 68 68 66 66 68 66 64
75 75 75 74 72 72 74 74 69 70 63 65 64 65 65 66 65 63 60 63 64 67 69 68 68 68 70 68 70 72 71 66 66 69 68 68 69 69 65 65 63 62
75 75 73 74 74 74 74 74 75 74 72 72 70 68 68 71 67 64 60 58 62 64 66 65 65 65 67 64 64 67 70 70 68 68 69 69 68 70 70 66 64 65
74 74 75 75 76 76 76 76 77 77 74 75 71 68 73 70 67 66 67 62 58 60 62 63 64 66 61 62 63 63 68 70 68 66 64 66 66 65 66 66 65 62
74 74 74 74 74 75 75 74 74 74 74 72 71 70 68 71 72 69 68 68 64 65 60 62 64 64 60 60 62 62 63 67 66 66 64 61 63 66 65 66 67 66
72 72 73 73 74 74 74 74 73 73 73 74 74 73 71 72 68 69 71 72 69 68 69 65 62 64 59 58 60 61 61 64 68 65 66 64 64 64 62 65 67 67
71 72 72 73 73 73 73 73 73 73 73 74 74 73 72 72 71 71 70 71 70 68 68 66 62 61 58 57 57 59 60 63 69 67 65 65 65 66 70 68 69 69
70 70 71 72 73 73 73 73 73 73 73 74 74 73 72 73 72 71 71 70 70 69 67 68 65 60 58 56 56 57 60 67 69 70 69 66 66 67 68 70 70 72
68 69 70 71 73 72 72 73 73 72 72 74 74 73 73 71 71 71 72 71 70 70 71 71 69 66 59 55 55 56 59 67 69 70 70 69 68 69 71 71 70 70
68 69 70 70 72 71 72 72 73 74 74 75 74 74 73 71 71 71 70 71 72 74 72 73 71 69 62 54 54 55 62 68 69 70 70 70 70 71 72 73 73 74
65 68 69 70 71 72 72 72 73 73 74 75 75 74 73 73 72 71 71 71 69 70 74 73 72 69 63 55 53 54 61 69 71 71 70 70 70 71 72 72 73 74
64 67 68 68 70 71 73 73 73 73 74 75 74 75 73 73 73 73 72 71 70 69 68 68 71 72 72 60 52 53 56 70 73 72 71 71 71 71 72 73 73 73